User: anonymous   Login
Location: Fort Wayne
(41.1310°N, 85.1290°W)
Time: 12:33:53
(UTC-05:00)
Language:

Cosmos 1000 Rocket - Orbit

View from above orbital plane
View from above orbital plane
View from above satellite
View from above satellite

Ground track
Ground track

The orbit data is extracted from the following two-line orbital elements,

1 10777U 78034B   18017.53497794 +.00000097 +00000-0 +82031-4 0  9993
2 10777 082.9418 071.1587 0025035 319.9946 147.5080 13.77393113999898
Epoch (UTC): 17 January 2018 12:50:22
Eccentricity: 0.0025035
inclination: 82.9418°
perigee height: 955 km
apogee height: 991 km
right ascension of ascending node: 71.1587°
argument of perigee: 319.9946°
revolutions per day: 13.77393113
mean anomaly at epoch: 147.5080°
orbit number at epoch: 99989

The dashed part of the orbit path shows where the satellite is in the earth's shadow,  

DLR